W4EDP Weather Reports


Display with metric or nautical units.
time (UTC)temp
F
wind
direction
speed
MPH
gust
MPH
rain 1hr
in
rain 24hr
in
rain mn
in
humidity
%
barometer
mb
20260504201619 73 222 1.0 8.0 0.00 0.00 0.00 49 1012.8
20260504200555 72 188 1.0 8.0 0.00 0.00 0.00 51 1012.9
20260504195535 72 211 1.0 8.0 0.00 0.00 0.00 50 1013.2
20260504194550 72 317 2.0 17.0 0.00 0.00 0.00 49 1013.2
20260504193532 72 163 2.0 17.0 0.00 0.00 0.00 48 1013.4
20260504192521 71 277 1.0 8.0 0.00 0.00 0.00 49 1013.5
20260504190351 72 198 1.0 11.0 0.00 0.00 0.00 53 1013.9
20260504185359 70 244 2.0 11.0 0.00 0.00 0.00 50 1014.1
20260504183227 70 219 2.0 15.0 0.00 0.00 0.00 52 1014.1
20260504182240 71 255 4.0 15.0 0.00 0.00 0.00 50 1014.3
20260504181247 70 262 2.0 11.0 0.00 0.00 0.00 51 1014.5
20260504180234 70 344 2.0 15.0 0.00 0.00 0.00 51 1014.5
20260504175203 71 215 2.0 15.0 0.00 0.00 0.00 52 1014.7
20260504174214 70 172 2.0 15.0 0.00 0.00 0.00 52 1014.8
20260504173213 69 165 2.0 13.0 0.00 0.00 0.00 51 1014.8
20260504172233 69 265 2.0 11.0 0.00 0.00 0.00 50 1014.8
20260504171224 69 215 1.0 6.0 0.00 0.00 0.00 52 1015.2
20260504170200 68 135 2.0 11.0 0.00 0.00 0.00 54 1015.2
20260504140450 59 138 2.0 9.0 0.00 0.00 0.00 58 1016.4
20260504130306 56 0 2.0 15.0 0.00 0.00 0.00 56 1016.4
20260504081944 52 0 0.0 0.0 0.00 0.00 0.00 59 1015.7
20260504081004 52 0 0.0 0.0 0.00 0.00 0.00 59 1015.7
20260504050507 52 0 1.0 8.0 0.00 0.00 0.00 59 1016.8
20260504045454 52 0 1.0 6.0 0.00 0.00 0.00 59 1016.8
20260504044433 52 0 1.0 6.0 0.00 0.00 0.00 60 1016.8
20260504043419 52 0 1.0 4.0 0.00 0.00 0.00 60 1016.9
20260504042444 52 0 1.0 6.0 0.00 0.00 0.00 59 1017.1
20260504040310 53 0 0.0 1.0 0.00 0.00 0.00 57 1017.2
20260504035252 54 0 0.0 0.0 0.00 0.00 0.00 56 1017.0
20260504034233 53 0 2.0 8.0 0.00 0.00 0.00 59 1017.2
20260504033254 53 0 1.0 8.0 0.00 0.00 0.00 58 1017.2
20260504032317 53 0 1.0 4.0 0.00 0.00 0.00 57 1017.4
20260504031257 54 0 1.0 6.0 0.00 0.00 0.00 56 1017.4
20260504030322 54 184 1.0 6.0 0.00 0.00 0.00 55 1017.4
20260504025307 54 162 1.0 0.0 0.00 0.00 0.00 57 1016.9
20260504024244 55 173 2.0 13.0 0.00 0.00 0.00 57 1017.0
20260504023258 54 263 2.0 6.0 0.00 0.00 0.00 60 1017.0
20260504022237 54 217 1.0 4.0 0.00 0.00 0.00 59 1017.0
20260504021225 54 225 0.0 4.0 0.00 0.00 0.00 59 1017.1
20260504015104 55 264 0.0 4.0 0.00 0.00 0.00 56 1017.0
20260504012940 55 221 0.0 0.0 0.00 0.00 0.00 55 1016.9
20260504010738 55 226 0.0 0.0 0.00 0.00 0.00 55 1016.8
20260504005735 56 212 0.0 1.0 0.00 0.00 0.00 55 1016.5
20260504004710 56 225 1.0 3.0 0.00 0.00 0.00 57 1016.5
20260504003715 56 169 0.0 0.0 0.00 0.00 0.00 58 1016.6
20260504001519 57 138 0.0 0.0 0.00 0.00 0.00 59 1016.6
20260504000505 57 138 0.0 0.0 0.00 0.00 0.00 57 1016.6
20260503234341 58 138 1.0 3.0 0.00 0.00 0.00 55 1016.6
20260503233336 59 0 1.0 4.0 0.00 0.00 0.00 55 1016.6
20260503232350 59 0 0.0 4.0 0.00 0.00 0.00 54 1016.8
20260503231341 60 0 0.0 0.0 0.00 0.00 0.00 52 1016.9
20260503225254 61 0 1.0 9.0 0.00 0.00 0.00 51 1016.9
20260503224257 61 144 0.0 0.0 0.00 0.00 0.00 53 1016.9
20260503223238 61 234 1.0 8.0 0.00 0.00 0.00 52 1016.9
20260503222216 61 189 2.0 8.0 0.00 0.00 0.00 51 1016.9
20260503221222 62 153 2.0 8.0 0.00 0.00 0.00 49 1017.0
20260503220149 62 178 2.0 9.0 0.00 0.00 0.00 47 1017.0
20260503215150 63 175 1.0 9.0 0.00 0.00 0.00 49 1017.1
20260503214126 63 148 0.0 8.0 0.00 0.00 0.00 47 1017.4
20260503213140 62 132 1.0 9.0 0.00 0.00 0.00 46 1017.4
20260503212148 62 324 2.0 9.0 0.00 0.00 0.00 46 1017.5
20260503211133 63 41 2.0 9.0 0.00 0.00 0.00 45 1017.7
20260503210144 63 136 2.0 9.0 0.00 0.00 0.00 44 1017.7
20260503205138 62 121 1.0 11.0 0.00 0.00 0.00 45 1018.0
20260503204127 63 124 2.0 11.0 0.00 0.00 0.00 43 1018.1
20260503203150 63 150 1.0 11.0 0.00 0.00 0.00 42 1018.1
20260503202155 62 154 2.0 11.0 0.00 0.00 0.00 40 1018.2